[[{"header":{"parameterUnit":"m.s-1","parameterCategory":1,"la1":30.2991,"la2":30.254,"lo1":-89.0895,"lo2":-89.0444,"dy":0.0017,"dx":0.0017,"nx":28,"ny":28,"refTime":"2023-10-13T21:00:00:Z","depth":0,"parameterNumber":2,"parameterNumberName":"U-component_of_WINDS"},"data":[0,0,0,0,0,0,0,0,0,0,0,0,0,0,0,0,0,0,0,0,0,0,0,0,0,0,0,0,0,0,0,0,0,0,0,0,0,0,0,0,0,0,0,0,0,0,0,0,0,0,0,0,0,0,0,0,0,0,-1.1502,-1.1501,0,-1.1414,-1.1413,-1.1412,-1.1343,-1.1342,-1.1342,-1.1341,-1.1246,-1.1245,-1.1243,0,0,0,0,0,0,0,0,0,0,0,0,0,-1.1607,-1.1605,-1.1502,-1.1501,-1.15,-1.1414,-1.1413,-1.1411,-1.1343,-1.1342,-1.1342,-1.1341,-1.1247,-1.1245,-1.1243,0,0,0,0,0,0,0,0,0,0,0,0,0,-1.1544,-1.1605,-1.1502,-1.1456,-1.145,-1.1414,-1.1413,-1.1411,-1.1343,-1.1342,-1.1341,-1.134,-1.1248,-1.1245,-1.1242,-1.1244,0,0,-1.1233,-1.1232,0,0,0,0,0,0,0,0,-1.1548,-1.154,-1.1463,-1.1459,-1.1453,-1.1388,-1.1415,-1.1355,-1.1344,-1.1384,-1.1341,-1.134,-1.1294,-1.1287,-1.1273,-1.1239,-1.1235,-1.1233,-1.1231,-1.123,-1.1229,0,0,0,0,0,0,0,-1.1552,-1.1544,-1.1467,-1.1462,-1.1456,-1.1437,-1.1427,-1.1403,-1.1345,-1.138,-1.1375,-1.1366,-1.1291,-1.1276,-1.127,-1.1234,-1.1233,-1.1231,-1.1229,-1.1228,-1.1195,-1.1195,0,0,0,0,0,0,-1.1564,-1.1548,-1.147,-1.1464,-1.1499,-1.1436,-1.1425,-1.141,-1.1346,-1.1335,-1.1367,-1.1363,-1.1281,-1.1274,-1.1267,-1.1262,-1.123,-1.1228,-1.1226,-1.1194,-1.1195,-1.1196,0,0,0,0,0,0,-1.1567,-1.1558,-1.1473,-1.1505,-1.1492,-1.1436,-1.1419,-1.1409,-1.1393,-1.1335,-1.1324,-1.1362,-1.128,-1.1271,-1.125,-1.1258,-1.1226,-1.1224,-1.1193,-1.1194,-1.1195,-1.1255,0,0,0,0,0,0,-1.157,-1.156,-1.1561,-1.1505,-1.1491,-1.146,-1.142,-1.1408,-1.1389,-1.1383,-1.1328,-1.1318,-1.1279,-1.1254,-1.1247,-1.1254,-1.1221,-1.1192,-1.1193,-1.1195,-1.1252,-1.1259,-1.1264,0,0,0,0,0,-1.1574,-1.1581,-1.1561,-1.1552,-1.1492,-1.146,-1.1452,-1.1408,-1.139,-1.139,-1.1352,-1.132,-1.1259,-1.1253,-1.1244,-1.125,-1.1191,-1.1193,-1.1195,-1.125,-1.1257,-1.1264,0,0,0,0,0,0,-1.1638,-1.1573,-1.155,-1.1539,-1.1506,-1.1449,-1.1447,-1.1418,-1.1388,-1.1383,-1.1329,-1.1317,-1.1301,-1.1273,-1.1268,-1.1247,-1.122,-1.1221,-1.1265,-1.1272,-1.1278,-1.1284,-1.1219,0,0,0,0,0,-1.1651,-1.1632,-1.1576,-1.1571,-1.1556,-1.1505,-1.149,-1.1459,-1.1421,-1.1406,-1.1367,-1.1331,-1.1303,-1.1286,-1.1258,-1.1248,-1.1234,-1.1248,-1.1254,-1.1259,-1.1259,-1.1249,-1.1254,-1.1202,-1.1202,-1.1202,0,0,-1.1677,-1.1639,-1.163,-1.1583,-1.1554,-1.1534,-1.1493,-1.1475,-1.1459,-1.1403,-1.1381,-1.1351,-1.1307,-1.1291,-1.1282,-1.1267,-1.127,-1.1261,-1.1266,-1.1263,-1.1252,-1.1257,-1.1261,-1.1203,-1.1203,-1.1203,0,0,-1.1714,-1.1684,-1.1677,-1.1648,-1.1604,-1.157,-1.1568,-1.1515,-1.1494,-1.1471,-1.1428,-1.1408,-1.1362,-1.1332,-1.131,-1.1335,-1.1303,-1.1327,-1.1357,-1.1348,-1.1352,-1.1356,-1.1363,-1.1366,-1.1328,-1.1328,-1.1328,0,-1.1751,-1.1721,-1.1676,-1.1659,-1.1639,-1.1589,-1.158,-1.1554,-1.1502,-1.1488,-1.1473,-1.1414,-1.1381,-1.1356,-1.1362,-1.1347,-1.1342,-1.1333,-1.1356,-1.1359,-1.1361,-1.1367,-1.137,-1.1331,-1.1331,-1.1331,-1.133,0,-1.1768,-1.1748,-1.1747,-1.17,-1.1679,-1.1666,-1.1618,-1.1602,-1.1573,-1.154,-1.1516,-1.1474,-1.1436,-1.1428,-1.1399,-1.1398,-1.139,-1.1366,-1.1338,-1.137,-1.1374,-1.1376,-1.1336,-1.1335,-1.1334,-1.1333,0,0,-1.1842,-1.177,-1.177,-1.1748,-1.1695,-1.1678,-1.1662,-1.1625,-1.1612,-1.1578,-1.1562,-1.1524,-1.1501,-1.1477,-1.1444,-1.1437,-1.1456,-1.1413,-1.1411,-1.1421,-1.1451,-1.1469,-1.1472,-1.1435,-1.1436,-1.1436,-1.1454,0,-1.187,-1.184,-1.1798,-1.1782,-1.1761,-1.1713,-1.1698,-1.1664,-1.1632,-1.1609,-1.1573,-1.1547,-1.1519,-1.1504,-1.1495,-1.1456,-1.1462,-1.1455,-1.1417,-1.1417,-1.1429,-1.1475,-1.1493,-1.1513,-1.1456,-1.1456,-1.1456,0,-1.1898,-1.1868,-1.1849,-1.1797,-1.1787,-1.1775,-1.1737,-1.1717,-1.1675,-1.1653,-1.1626,-1.159,-1.1568,-1.1545,-1.1513,-1.1509,-1.1491,-1.147,-1.147,-1.1463,-1.1438,-1.1468,-1.1518,-1.152,-1.1459,-1.1459,-1.1459,0,-1.1952,-1.1906,-1.1889,-1.1871,-1.181,-1.1803,-1.1777,-1.1735,-1.1715,-1.1682,-1.1668,-1.1632,-1.1612,-1.1585,-1.1539,-1.1527,-1.1512,-1.1485,-1.149,-1.1491,-1.1488,-1.1489,-1.1535,-1.148,-1.148,-1.148,-1.148,0,-1.1986,-1.1976,-1.1912,-1.1901,-1.1888,-1.1839,-1.1827,-1.1796,-1.1759,-1.174,-1.1696,-1.1679,-1.1621,-1.1596,-1.1561,-1.1538,-1.153,-1.1509,-1.15,-1.1513,-1.1515,-1.1499,-1.1496,-1.1481,-1.148,-1.148,-1.148,0,-1.2043,-1.2,-1.1978,-1.1922,-1.1908,-1.1901,-1.1852,-1.1839,-1.1805,-1.1781,-1.1772,-1.1718,-1.1686,-1.1639,-1.1593,-1.1569,-1.1552,-1.1537,-1.1566,-1.156,-1.1568,-1.1567,-1.1603,-1.1605,-1.1552,-1.1552,-1.1553,0,-1.2067,-1.2058,-1.2002,-1.1987,-1.1963,-1.1939,-1.1918,-1.187,-1.185,-1.1802,-1.1794,-1.1759,-1.1729,-1.168,-1.1635,-1.1599,-1.1582,-1.1597,-1.1576,-1.1589,-1.158,-1.158,-1.1578,-1.1602,-1.1603,-1.1604,-1.1604,0,-1.2113,-1.2092,-1.2066,-1.2031,-1.2008,-1.1979,-1.1946,-1.1936,-1.188,-1.186,-1.1827,-1.1804,-1.1757,-1.1722,-1.168,-1.1651,-1.1617,-1.1611,-1.161,-1.1622,-1.1639,-1.1628,-1.1578,-1.161,-1.161,-1.1609,-1.1609,-1.1609,-1.2153,-1.2142,-1.2101,-1.2072,-1.2043,-1.2014,-1.1998,-1.1962,-1.1935,-1.1894,-1.1867,-1.1835,-1.1792,-1.1732,-1.1705,-1.1678,-1.1664,-1.1664,-1.1663,-1.1663,-1.1667,-1.1645,-1.1671,-1.1671,-1.167,-1.167,-1.167,0,-1.2195,-1.2167,-1.2141,-1.2097,-1.2074,-1.2047,-1.2009,-1.1991,-1.1965,-1.1928,-1.1899,-1.1861,-1.1827,-1.178,-1.1741,-1.1729,-1.1712,-1.172,-1.172,-1.1713,-1.1683,-1.1686,-1.1734,-1.1734,-1.1734,-1.1734,-1.1734,-1.1734,-1.2215,-1.2195,-1.2169,-1.2133,-1.2104,-1.2074,-1.2055,-1.2026,-1.1997,-1.1957,-1.1929,-1.1899,-1.1857,-1.1815,-1.1782,-1.1768,-1.1755,-1.1768,-1.175,-1.1722,-1.1716,-1.171,-1.1713,-1.1766,-1.1766,-1.1782,-1.1782,-1.1782]},{"header":{"parameterUnit":"m.s-1","parameterCategory":1,"la1":30.2991,"la2":30.254,"lo1":-89.0895,"lo2":-89.0444,"dy":0.0017,"dx":0.0017,"nx":28,"ny":28,"refTime":"2023-10-13T21:00:00:Z","depth":0,"parameterNumber":3,"parameterNumberName":"V-component_of_WINDS"},"data":[0,0,0,0,0,0,0,0,0,0,0,0,0,0,0,0,0,0,0,0,0,0,0,0,0,0,0,0,0,0,0,0,0,0,0,0,0,0,0,0,0,0,0,0,0,0,0,0,0,0,0,0,0,0,0,0,0,0,-0.7184,-0.7186,0,-0.7313,-0.7314,-0.7316,-0.7356,-0.7355,-0.7354,-0.7354,-0.7486,-0.749,-0.7494,0,0,0,0,0,0,0,0,0,0,0,0,0,-0.6973,-0.6976,-0.7184,-0.7186,-0.7187,-0.7313,-0.7314,-0.7316,-0.7356,-0.7355,-0.7354,-0.7354,-0.7484,-0.7489,-0.7494,0,0,0,0,0,0,0,0,0,0,0,0,0,-0.7079,-0.6978,-0.7184,-0.7222,-0.7227,-0.7312,-0.7314,-0.7317,-0.7356,-0.7355,-0.7354,-0.7353,-0.7483,-0.7489,-0.7495,-0.7551,0,0,-0.7514,-0.7516,0,0,0,0,0,0,0,0,-0.7073,-0.7087,-0.7215,-0.722,-0.7225,-0.7317,-0.7288,-0.7395,-0.7356,-0.7307,-0.7354,-0.7353,-0.7431,-0.7441,-0.7467,-0.7558,-0.7563,-0.7514,-0.7518,-0.7521,-0.7522,0,0,0,0,0,0,0,-0.7066,-0.7082,-0.7235,-0.7217,-0.7223,-0.7233,-0.7247,-0.7309,-0.7372,-0.7311,-0.7314,-0.7329,-0.7433,-0.7461,-0.747,-0.7565,-0.7514,-0.7519,-0.7523,-0.7526,-0.7708,-0.7709,0,0,0,0,0,0,-0.7052,-0.7075,-0.7231,-0.7239,-0.7145,-0.7238,-0.7253,-0.7289,-0.7372,-0.7384,-0.733,-0.733,-0.7451,-0.7463,-0.7475,-0.7547,-0.752,-0.7526,-0.753,-0.7707,-0.7708,-0.771,0,0,0,0,0,0,-0.7047,-0.7065,-0.7226,-0.7158,-0.7179,-0.7242,-0.7282,-0.7292,-0.732,-0.7386,-0.7397,-0.7347,-0.7451,-0.7467,-0.7532,-0.7552,-0.7529,-0.7535,-0.7706,-0.7707,-0.7709,-0.769,0,0,0,0,0,0,-0.7041,-0.7063,-0.7086,-0.7158,-0.7183,-0.7281,-0.7283,-0.7295,-0.733,-0.7332,-0.7405,-0.7416,-0.7451,-0.7523,-0.7538,-0.756,-0.7539,-0.7704,-0.7706,-0.7708,-0.769,-0.7691,-0.7693,0,0,0,0,0,-0.7033,-0.7076,-0.7087,-0.7105,-0.7212,-0.7282,-0.7296,-0.7336,-0.7332,-0.7354,-0.7397,-0.7414,-0.7547,-0.7529,-0.7547,-0.7571,-0.7703,-0.7706,-0.7708,-0.7689,-0.7691,-0.7693,0,0,0,0,0,0,-0.7004,-0.7086,-0.7099,-0.7166,-0.7217,-0.7288,-0.7318,-0.7337,-0.7389,-0.7389,-0.7436,-0.7452,-0.7514,-0.7549,-0.7528,-0.763,-0.7626,-0.7632,-0.7605,-0.7607,-0.7609,-0.76,-0.7545,0,0,0,0,0,-0.7005,-0.7055,-0.7124,-0.7176,-0.7201,-0.7255,-0.7287,-0.7313,-0.7368,-0.7389,-0.7436,-0.7488,-0.7542,-0.7577,-0.763,-0.7694,-0.7711,-0.772,-0.7721,-0.7722,-0.7727,-0.7764,-0.7769,-0.7718,-0.7718,-0.7718,0,0,-0.7009,-0.7059,-0.7088,-0.7172,-0.7214,-0.7265,-0.7273,-0.7326,-0.7364,-0.7397,-0.7462,-0.7498,-0.756,-0.7625,-0.7656,-0.7656,-0.7745,-0.7726,-0.7726,-0.7731,-0.7767,-0.7772,-0.7776,-0.772,-0.772,-0.7719,0,0,-0.7041,-0.7084,-0.7133,-0.7174,-0.7238,-0.7274,-0.7285,-0.7354,-0.7379,-0.7445,-0.7471,-0.7516,-0.7608,-0.7651,-0.7684,-0.7731,-0.7748,-0.7747,-0.7756,-0.7791,-0.7795,-0.7799,-0.7815,-0.7821,-0.7751,-0.7751,-0.7751,0,-0.7037,-0.7114,-0.7155,-0.7207,-0.7243,-0.7275,-0.7324,-0.7363,-0.744,-0.7464,-0.7463,-0.7578,-0.7622,-0.7697,-0.7708,-0.7734,-0.7749,-0.7739,-0.7791,-0.7795,-0.7799,-0.7816,-0.7822,-0.7751,-0.7751,-0.7751,-0.7751,0,-0.7106,-0.7159,-0.7191,-0.7265,-0.7304,-0.7354,-0.7403,-0.7438,-0.746,-0.7495,-0.7562,-0.7615,-0.7679,-0.7699,-0.7721,-0.7777,-0.7775,-0.7782,-0.7779,-0.7803,-0.7819,-0.7826,-0.775,-0.775,-0.775,-0.7751,0,0,-0.7125,-0.722,-0.7231,-0.7264,-0.7337,-0.7378,-0.743,-0.7492,-0.7521,-0.7573,-0.7618,-0.7694,-0.77,-0.7738,-0.7766,-0.7796,-0.783,-0.7799,-0.7801,-0.7803,-0.7895,-0.789,-0.7897,-0.7842,-0.7843,-0.7844,-0.789,0,-0.7166,-0.7259,-0.7297,-0.7373,-0.7422,-0.7453,-0.7497,-0.7546,-0.758,-0.7627,-0.7665,-0.7719,-0.7723,-0.7746,-0.7778,-0.7819,-0.7849,-0.7816,-0.7884,-0.7885,-0.7868,-0.7905,-0.7901,-0.7941,-0.7897,-0.7898,-0.7899,0,-0.7227,-0.7279,-0.736,-0.7425,-0.7448,-0.7487,-0.7547,-0.7592,-0.7647,-0.767,-0.7712,-0.7738,-0.7792,-0.7785,-0.7861,-0.7838,-0.7868,-0.7892,-0.7895,-0.7903,-0.7894,-0.7915,-0.7956,-0.7962,-0.7909,-0.7908,-0.7908,0,-0.7232,-0.7323,-0.7383,-0.7411,-0.7489,-0.7516,-0.7549,-0.7604,-0.7639,-0.7692,-0.7715,-0.7773,-0.7805,-0.7849,-0.789,-0.788,-0.7962,-0.7958,-0.7982,-0.7981,-0.7999,-0.7997,-0.8045,-0.8017,-0.8017,-0.8017,-0.8016,0,-0.7275,-0.7323,-0.7386,-0.7423,-0.7477,-0.752,-0.7573,-0.7609,-0.7657,-0.7701,-0.7731,-0.7772,-0.7822,-0.787,-0.7902,-0.796,-0.7974,-0.7994,-0.8002,-0.7992,-0.7989,-0.8012,-0.8011,-0.8018,-0.8018,-0.8018,-0.8017,0,-0.7291,-0.7335,-0.7402,-0.747,-0.7488,-0.7525,-0.7584,-0.762,-0.7656,-0.7711,-0.7727,-0.7782,-0.7839,-0.7883,-0.7958,-0.7979,-0.8041,-0.8049,-0.8022,-0.8026,-0.8048,-0.8046,-0.8113,-0.8124,-0.8087,-0.8088,-0.8088,0,-0.7315,-0.7353,-0.7425,-0.7456,-0.749,-0.754,-0.7576,-0.7619,-0.7655,-0.7721,-0.775,-0.7809,-0.7859,-0.7948,-0.7995,-0.8052,-0.8062,-0.8082,-0.8071,-0.806,-0.8063,-0.8061,-0.8065,-0.8083,-0.8084,-0.8084,-0.8084,0,-0.7354,-0.7374,-0.7424,-0.7482,-0.7524,-0.7572,-0.762,-0.7644,-0.7696,-0.7735,-0.7793,-0.7832,-0.7907,-0.7966,-0.8027,-0.8062,-0.8082,-0.8087,-0.8096,-0.8086,-0.8068,-0.8078,-0.8026,-0.8085,-0.8085,-0.8085,-0.8085,-0.8085,-0.7375,-0.741,-0.7466,-0.7521,-0.7562,-0.7606,-0.7644,-0.7684,-0.7733,-0.7798,-0.782,-0.7881,-0.7935,-0.802,-0.8055,-0.8102,-0.8104,-0.8116,-0.8119,-0.8122,-0.8121,-0.806,-0.8114,-0.8114,-0.8114,-0.8114,-0.8114,0,-0.7416,-0.7453,-0.7503,-0.757,-0.7613,-0.7627,-0.7681,-0.7716,-0.7769,-0.7818,-0.7866,-0.7933,-0.799,-0.8041,-0.8099,-0.8128,-0.8138,-0.8142,-0.814,-0.8148,-0.8117,-0.8103,-0.8132,-0.8132,-0.8132,-0.8132,-0.8132,-0.8132,-0.7442,-0.7502,-0.7528,-0.7608,-0.7645,-0.7704,-0.7734,-0.7775,-0.7814,-0.7888,-0.7934,-0.7967,-0.8017,-0.808,-0.8132,-0.8145,-0.8166,-0.8167,-0.8183,-0.8153,-0.815,-0.8148,-0.8136,-0.8171,-0.8171,-0.8211,-0.8211,-0.8211]}]]